732  
ASUS43 KDTX 182010  
RWRMI  
MICHIGAN HOURLY REGIONAL WEATHER ROUNDUP  
NATIONAL WEATHER SERVICE DETROIT/PONTIAC MI  
400 PM EDT WED SEP 18 2019  
 
NOTE: "FAIR" INDICATES FEW OR NO CLOUDS BELOW 12,000 FEET WITH NO  
SIGNIFICANT WEATHER AND/OR TO VISIBILITY
.  
 
MIZ047>049-052>055-059>063-066>070-074>076-081>083-182100-  
SOUTHEAST LOWER MICHIGAN  
 
CITY SKY/WX TMP DP RH WIND PRES REMARKS
 
ADRIAN FAIR 79 54 41 E10 30.19F  
ALMA FAIR 80 54 40 SE6 30.18F  
ANN ARBOR FAIR 77 55 46 SE9 30.19F  
BAD AXE FAIR 77 54 45 S10 30.19F  
CARO FAIR 80 57 45 S8 30.19F  
DETROIT CITY FAIR 76 49 38 SE9 30.21F  
DETROIT FAIR 77 55 46 VRB6 30.20F  
FLINT FAIR 80 57 45 SE10G21 30.19F  
GROSSE ILE FAIR 76 54 45 SE5 30.19F  
HILLSDALE FAIR 78 53 41 E5 30.18F  
HOWELL FAIR 80 51 35 SE7 30.20S  
 
CITY SKY/WX TMP DP RH WIND PRES REMARKS
 
JACKSON FAIR 80 57 45 SE9 30.18F  
LAMBERTVILLE FAIR 78 54 43 E5 30.19S  
LANSING FAIR 80 57 45 SE12 30.18F  
LAPEER FAIR 77 50 38 SE8 30.22F  
MASON FAIR 79 54 41 E10G17 30.19S  
MONROE FAIR 76 48 37 E9G16 30.19F  
MT. CLEMENS MOSUNNY 76 49 38 SE9 30.21F  
PONTIAC FAIR 77 53 43 E8 30.20S  
PORT HOPE N/A 75 56 51 SE13G20 30.19F  
PORT HURON FAIR 79 43 27 SE6 30.22F  
TRI CITIES FAIR 80 56 43 S9 30.19S  
MIDLAND FAIR 82 52 35 S6 30.17F  
TROY FAIR 79 46 31 E9 30.23S  
SAGINAW HB FAIR 81 54 39 SW6 30.18S  

 
MIZ043>046-050>051-056>058-064>065-071>073-077>080-182100-  
SOUTHWEST LOWER MICHIGAN  
 
CITY SKY/WX TMP DP RH WIND PRES REMARKS
 
BATTLE CREEK FAIR 80 56 43 SE8 30.18F  
BENTON HARBOR FAIR 82 60 47 S8 30.13F  
BIG RAPIDS FAIR 79 58 49 S9G21 30.15F  
COLDWATER FAIR 78 47 33 E6 30.17F  
FREMONT FAIR 80 52 37 S7 30.14F  
HOLLAND FAIR 80 63 55 S8 30.15F  
GRAND RAPIDS PTSUNNY 80 58 46 SE7 30.16F  
IONIA FAIR 81 52 37 S6 30.16F  
KALAMAZOO FAIR 81 51 35 VRB3 30.16F  
LUDINGTON FAIR 76 61 58 SW13 30.12F  
MARSHALL FAIR 82 51 34 SE5 30.17F  
MOUNT PLEASANT FAIR 80 58 46 SW7 30.17F  
MUSKEGON PTSUNNY 80 59 48 S9 30.14F  
SOUTH HAVEN FAIR 80 60 48 SE7 30.14F  

 
MIZ016>042-182100-  
NORTHERN LOWER MICHIGAN  
 
CITY SKY/WX TMP DP RH WIND PRES REMARKS
 
BEAVER ISLAND FAIR 75 55 49 S8 30.11F  
BELLAIRE FAIR 85 50 30 S12 30.11F  
CADILLAC FAIR 81 55 40 S8G18 30.14F  
CHARLEVOIX FAIR 83 54 37 S12 30.14F  
FRANKFORT FAIR 77 60 55 S10G17 30.11F  
GRAYLING FAIR 78 55 45 S9 30.15F  
HARBOR SPRINGS FAIR 83 52 33 S7 30.11F  
HOUGHTON LAKE FAIR 77 56 48 S9 30.18F  
MANISTEE FAIR 78 64 61 SW8 30.10F  
OSCODA FAIR 76 60 58 SE8 30.18F  
PELLSTON FAIR 82 53 36 S12G18 30.12F  
ROGERS CITY FAIR 79 57 47 S9 30.15F  
TRAVERSE CITY FAIR 83 56 39 S9G20 30.09F  

 
MIZ007>008-015-182100-  
EASTERN UPPER MICHIGAN  
 
CITY SKY/WX TMP DP RH WIND PRES REMARKS
 
KINROSS FAIR 77 59 53 S9 30.13F  
MACKINAC ISLAN FAIR 70 59 68 E7 30.13F  
NEWBERRY FAIR 75 55 50 S16G29 30.08F HAZE  
S. S. MARIE FAIR 78 59 51 S10 30.11F  
MUNISING N/A 76 60 57 S12G31 29.97F  

 
MIZ004>006-011>014-085-182100-  
CENTRAL UPPER MICHIGAN  
 
CITY SKY/WX TMP DP RH WIND PRES REMARKS
 
MANISTIQUE FAIR 69 62 78 S13 30.07F  
ESCANABA FAIR 68 62 81 S15G25 30.03F  
MENOMINEE FAIR 73 64 73 S16G23 30.02F  
SAWYER-GWINN SUNNY 77 63 61 S20G26 29.96F  

 
MIZ001>003-009>011-084-182100-  
WESTERN UPPER MICHIGAN  
 
CITY SKY/WX TMP DP RH WIND PRES REMARKS
 
IRON MOUNTAIN FAIR 80 64 58 S16G28 29.97F  
HOUGHTON FAIR 81 67 62 SE8 29.87F  
COPPER HARBOR N/A 75 63 66 SW10G18 29.86F  
IRONWOOD FAIR 78 64 61 S13G25 29.86F  

 
 
ABBREVIATIONS USED IN REMARKS  
TC - TEMPERATURE IN CELSIUS  
WCI - WIND CHILL INDEX  
HX - HEAT INDEX  
VSB - VISIBILITY  
 
 
 
CLICK HERE TO GO TO PREVIOUS BULLETINS.

The Nexlab MI Page Main Text Page